User: anonymous   Login
Location: Waco, TX
(31.5481°N, 97.1672°W)
Time: 00:39:11
(UTC-06:00)
Language:

BEESAT 3 - Orbit

View from above orbital plane
View from above orbital plane
View from above satellite
View from above satellite

Ground track
Ground track

The orbit data is extracted from the following two-line orbital elements,

1 39134U 13015E   18053.51214997  .00001147  00000-0  64133-4 0  9999
2 39134 064.8635 137.7708 0023783 226.2946 133.6211 15.18827482267100
Epoch (UTC): 22 February 2018 12:17:29
Eccentricity: 0.0023783
inclination: 64.8635°
perigee height: 493 km
apogee height: 526 km
right ascension of ascending node: 137.7708°
argument of perigee: 226.2946°
revolutions per day: 15.18827482
mean anomaly at epoch: 133.6211°
orbit number at epoch: 26710

The dashed part of the orbit path shows where the satellite is in the earth's shadow,  

DLR